FDX9008 OMDW-FAOR

Flight info

Callsign FDX9008
Flight time N/A
Altitude 30000
Route ANVIX R401 GIDIS G783 UKRAG L710 KUKDI B400 VEDET UL437 DV UM310 VBR UM307 EPSEK UZ33 NESAG UZ7 OKPIT OKPIT1D
Aircraft B77L/H-SDE1E2E3FGHIJ2J3J4J5M1RWXY/LB1D1

Departure

Time 2026-05-06 15:21
Airport Al Maktoum International Airport (OMDW)

Arrival

Time N/A
Airport O.R. Tambo International Airport (FAOR)
Time Latitude Longitude Altitude Speed Heading
2026-05-06 15:05 24.88805 55.15461 167 ft 0 kts 31°
2026-05-06 15:09 24.88805 55.15462 167 ft 0 kts 31°
2026-05-06 15:09 24.88822 55.15473 166 ft 9 kts 31°
2026-05-06 15:09 24.88904 55.15528 166 ft 16 kts 31°
2026-05-06 15:09 24.89007 55.15598 165 ft 18 kts 31°
2026-05-06 15:10 24.89114 55.15670 164 ft 18 kts 31°
2026-05-06 15:10 24.89213 55.15736 164 ft 15 kts 31°
2026-05-06 15:10 24.89291 55.15788 163 ft 11 kts 31°
2026-05-06 15:10 24.89356 55.15830 163 ft 12 kts 31°
2026-05-06 15:11 24.89429 55.15887 163 ft 13 kts 61°
2026-05-06 15:11 24.89403 55.15978 163 ft 13 kts 121°
2026-05-06 15:11 24.89349 55.16069 163 ft 15 kts 123°
2026-05-06 15:11 24.89289 55.16175 163 ft 17 kts 121°
2026-05-06 15:12 24.89225 55.16294 163 ft 19 kts 121°
2026-05-06 15:12 24.89155 55.16420 163 ft 20 kts 121°
2026-05-06 15:12 24.89085 55.16548 165 ft 20 kts 122°
2026-05-06 15:12 24.89014 55.16675 163 ft 19 kts 121°
2026-05-06 15:13 24.88948 55.16794 163 ft 18 kts 121°
2026-05-06 15:13 24.88883 55.16910 163 ft 17 kts 121°
2026-05-06 15:13 24.88822 55.17019 163 ft 17 kts 121°
2026-05-06 15:13 24.88760 55.17135 163 ft 18 kts 121°
2026-05-06 15:14 24.88691 55.17260 163 ft 20 kts 121°
2026-05-06 15:14 24.88615 55.17395 162 ft 21 kts 122°
2026-05-06 15:14 24.88535 55.17538 163 ft 22 kts 122°
2026-05-06 15:14 24.88468 55.17658 162 ft 15 kts 121°
2026-05-06 15:15 24.88417 55.17753 162 ft 14 kts 121°
2026-05-06 15:15 24.88397 55.17841 163 ft 11 kts 66°
2026-05-06 15:15 24.88446 55.17885 162 ft 8 kts 33°
2026-05-06 15:15 24.88489 55.17916 162 ft 7 kts 33°
2026-05-06 15:16 24.88525 55.17939 162 ft 5 kts 30°
2026-05-06 15:16 24.88551 55.17955 162 ft 4 kts 30°
2026-05-06 15:16 24.88568 55.17966 162 ft 2 kts 29°
2026-05-06 15:16 24.88588 55.17976 162 ft 5 kts 21°
2026-05-06 15:17 24.88638 55.17957 162 ft 11 kts 309°
2026-05-06 15:17 24.88654 55.17927 162 ft 0 kts 301°
2026-05-06 15:19 24.88714 55.17821 162 ft 28 kts 302°
2026-05-06 15:20 24.88869 55.17542 163 ft 70 kts 301°
2026-05-06 15:20 24.89258 55.16842 161 ft 140 kts 301°
2026-05-06 15:20 24.89884 55.15763 179 ft 193 kts 307°
2026-05-06 15:20 24.90688 55.14502 514 ft 205 kts 305°
2026-05-06 15:21 24.91461 55.13165 902 ft 213 kts 303°
2026-05-06 15:21 24.92267 55.11795 1565 ft 206 kts 304°
2026-05-06 15:21 24.92990 55.10451 2130 ft 205 kts 297°
2026-05-06 15:21 24.93688 55.09000 2302 ft 222 kts 299°
2026-05-06 15:22 24.94475 55.07504 2675 ft 231 kts 300°
2026-05-06 15:22 24.95285 55.05953 3004 ft 232 kts 292°
2026-05-06 15:22 24.95561 55.04213 2968 ft 237 kts 257°
2026-05-06 15:22 24.94910 55.02589 2971 ft 238 kts 227°
2026-05-06 15:23 24.89194 55.00352 3032 ft 237 kts 151°
2026-05-06 15:24 24.87910 55.01525 3004 ft 246 kts 128°
2026-05-06 15:24 24.86956 55.03093 3016 ft 247 kts 122°
2026-05-06 15:24 24.86202 55.04782 2977 ft 245 kts 101°
2026-05-06 15:24 24.86297 55.06665 3034 ft 257 kts 76°